Overview Statistics Trail Chart Weather Telemetry Raw packets
 

This is the latest recevied weather packets stored in our database for station/object WX0ABE-13. If no packets are shown the sender has not sent any weather packets the latest 10 day(s).

<< 45 46 47 48 49 50 51 >>
Time Temp. Humidity Pressure Rain* Wind** Luminosity Snow
1788036613 33.89° C 25% 1014.4 hPa 0 mm - 425 W/m² -
1788036308 33.89° C 26% 1014.3 hPa 0 mm - 201 W/m² -
1788036003 33.89° C 26% 1014.1 hPa 0 mm - 229 W/m² -
1788035702 34.44° C 26% 1014.4 hPa 0 mm - 382 W/m² -
1788035397 34.44° C 25% 1014.3 hPa 0 mm - 563 W/m² -
1788035093 33.89° C 25% 1014.3 hPa 0 mm - 615 W/m² -
1788034789 33.89° C 26% 1014.3 hPa 0 mm - 298 W/m² -
1788034485 34.44° C 25% 1014.4 hPa 0 mm - 300 W/m² -
1788034181 34.44° C 26% 1014.6 hPa 0 mm - 400 W/m² -
1788033880 33.89° C 26% 1014.5 hPa 0 mm - 413 W/m² -
1788033579 33.89° C 26% 1014.7 hPa 0 mm - 360 W/m² -
1788033274 33.33° C 26% 1014.5 hPa 0 mm - 227 W/m² -
1788032970 33.33° C 27% 1014.6 hPa 0 mm - 250 W/m² -
1788032670 33.33° C 27% 1014.6 hPa 0 mm - 239 W/m² -
1788032365 33.33° C 27% 1014.6 hPa 0 mm - 287 W/m² -
1788032060 33.89° C 27% 1014.7 hPa 0 mm - 290 W/m² -
1788031756 33.89° C 26% 1014.7 hPa 0 mm - 262 W/m² -
1788031455 34.44° C 27% 1014.8 hPa 0 mm - 253 W/m² -
1788031157 35° C 28% 1014.8 hPa 0 mm - 853 W/m² -
1788030849 33.89° C 25% 1015 hPa 0 mm - 638 W/m² -
1788030543 33.33° C 27% 1015.4 hPa 0 mm - 414 W/m² -
1788030238 33.33° C 28% 1015.3 hPa 0 mm - 321 W/m² -
1788029933 35° C 28% 1015.2 hPa 0 mm - 383 W/m² -
1788029629 34.44° C 28% 1015.5 hPa 0 mm - 717 W/m² -
1788029324 34.44° C 27% 1015.4 hPa 0 mm - 684 W/m² -

* Rain latest hour (hover to see other rain measurements)
** Current wind speed in m/s (hover to see current wind gust speed)